Hutchinson, MN

2:09 PM CDT on May 25, 2018 (GMT -0500)
Hutchinson Municipal-Butler

Weather History for KHCD - January, 2014

Change the Weather History Date:

Wednesday, January 29, 2014

  Actual Average Record
Temperature  
Mean Temperature 12 °F -  
Max Temperature 31 °F 23 °F 41 °F (1990)
Min Temperature -8 °F 2 °F -27 °F (1966)
Degree Days  
Heating Degree Days 54    
Moisture  
Dew Point 4 °F    
Average Humidity 72    
Maximum Humidity 86    
Minimum Humidity 58    
Precipitation  
Precipitation 0.00 in - - ()
Sea Level Pressure  
Sea Level Pressure 29.78 in    
Wind  
Wind Speed 6 mph (SSW)    
Max Wind Speed 15 mph    
Max Gust Speed 21 mph    
Visibility 10 miles    
Events      
Averages and records for this station are not official NWS values.
T = Trace of Precipitation, MM = Missing Value Source: NWS Daily Summary

Daily Weather History Graph

Daily Weather History Graph

Search for Another Location

Airport or City:

Astronomy

Jan. 29, 2014 Rise Set
Actual Time 7:40 AM CST 5:21 PM CST
Civil Twilight 7:08 AM CST 5:53 PM CST
Nautical Twilight 6:33 AM CST 6:28 PM CST
Astronomical Twilight 5:59 AM CST 7:02 PM CST
Moon 6:17 AM CST (1/29) 4:22 PM CST (1/29)
Length of Visible Light 10h 44m
Length of Day
9h 41m
Waning Crescent, 2% of the Moon is Illuminated
Jan 29
Waning Crescent
Jan 30
New
Feb 6
First Quarter
Feb 14
Full
Feb 22
Last Quarter

Hourly Weather History & Observations

Time (CST) Temp. Windchill Dew Point Humidity Pressure Visibility Wind Dir Wind Speed Gust Speed Precip Events Conditions
12:13 AM -5.8 °F -16.7 °F -11.9 °F 75% 30.07 in 10.0 mi SW 4.6 mph - N/A   Clear
12:34 AM -5.8 °F -19.9 °F -11.6 °F 76% 30.07 in 10.0 mi SW 6.9 mph - N/A   Clear
12:53 AM -6.2 °F -18.9 °F -11.7 °F 77% 30.06 in 10.0 mi SW 5.8 mph - N/A   Clear
1:13 AM -6.3 °F -17.3 °F -11.9 °F 77% 30.06 in 10.0 mi SW 4.6 mph - N/A   Clear
1:33 AM -6.7 °F -21.0 °F -12.3 °F 77% 30.05 in 10.0 mi SW 6.9 mph - N/A   Clear
1:54 AM -7.6 °F -20.6 °F -13.0 °F 77% 30.05 in 10.0 mi SSW 5.8 mph - N/A   Clear
2:13 AM -7.6 °F -18.8 °F -12.8 °F 78% 30.05 in 10.0 mi SW 4.6 mph - N/A   Clear
2:33 AM -8.0 °F -21.0 °F -13.5 °F 77% 30.04 in 10.0 mi SW 5.8 mph - N/A   Clear
2:53 AM -7.1 °F -21.4 °F -12.6 °F 77% 30.03 in 10.0 mi SSW 6.9 mph - N/A   Clear
3:13 AM -6.3 °F -20.6 °F -11.9 °F 77% 30.03 in 10.0 mi SW 6.9 mph - N/A   Clear
3:33 AM -6.3 °F -19.1 °F -12.3 °F 75% 30.03 in 10.0 mi SW 5.8 mph - N/A   Clear
3:53 AM -6.3 °F -17.3 °F -12.1 °F 76% 30.02 in 10.0 mi SW 4.6 mph - N/A   Clear
4:13 AM -5.6 °F -16.5 °F -11.6 °F 75% 30.01 in 10.0 mi SW 4.6 mph - N/A   Clear
4:33 AM -5.1 °F -20.4 °F -11.0 °F 76% 30.00 in 10.0 mi SSW 8.1 mph - N/A   Clear
4:53 AM -4.9 °F -20.1 °F -11.0 °F 75% 29.99 in 10.0 mi SSW 8.1 mph - N/A   Clear
5:13 AM -4.2 °F -16.5 °F -10.1 °F 76% 29.99 in 10.0 mi SSW 5.8 mph - N/A   Clear
5:34 AM -4.7 °F -13.2 °F -10.3 °F 77% 29.98 in 10.0 mi SSW 3.5 mph - N/A   Clear
5:53 AM -6.7 °F -19.5 °F -12.3 °F 77% 29.96 in 10.0 mi South 5.8 mph - N/A   Clear
6:14 AM -6.0 °F -16.9 °F -11.2 °F 78% 29.96 in 10.0 mi South 4.6 mph - N/A   Clear
6:33 AM -5.3 °F -19.3 °F -10.8 °F 77% 29.94 in 10.0 mi South 6.9 mph - N/A   Clear
6:53 AM -5.8 °F -19.9 °F -11.2 °F 77% 29.92 in 10.0 mi South 6.9 mph - N/A   Clear
7:13 AM -5.8 °F -16.7 °F -11.2 °F 77% 29.92 in 10.0 mi South 4.6 mph - N/A   Clear
7:34 AM -5.1 °F -13.6 °F -10.7 °F 77% 29.94 in 10.0 mi SSW 3.5 mph - N/A   Clear
7:53 AM -5.1 °F -15.8 °F -10.3 °F 78% 29.91 in 10.0 mi South 4.6 mph - N/A   Clear
8:13 AM -4.7 °F -15.4 °F -10.3 °F 77% 29.90 in 10.0 mi SSE 4.6 mph - N/A   Clear
8:33 AM -3.3 °F - -9.4 °F 75% 29.89 in 10.0 mi Calm Calm - N/A   Clear
8:53 AM -1.5 °F -13.3 °F -8.3 °F 73% 29.89 in 10.0 mi South 5.8 mph - N/A   Clear
9:13 AM 0.3 °F -12.6 °F -6.9 °F 72% 29.88 in 10.0 mi South 6.9 mph - N/A   Clear
9:33 AM 2.8 °F -10.7 °F -5.1 °F 70% 29.88 in 10.0 mi South 8.1 mph - N/A   Clear
9:53 AM 5.0 °F -6.9 °F -3.5 °F 68% 29.88 in 10.0 mi South 6.9 mph - N/A   Clear
10:13 AM 7.0 °F -6.6 °F -2.2 °F 66% 29.87 in 10.0 mi South 9.2 mph - N/A   Clear
10:33 AM 8.8 °F -5.3 °F -0.4 °F 66% 29.86 in 10.0 mi South 10.4 mph - N/A   Clear
10:53 AM 11.1 °F -1.6 °F 1.2 °F 64% 29.86 in 10.0 mi South 9.2 mph - N/A   Clear
11:14 AM 12.7 °F 2.4 °F 2.1 °F 63% 29.84 in 10.0 mi South 6.9 mph - N/A   Clear
11:33 AM 14.5 °F 1.1 °F 3.2 °F 61% 29.83 in 10.0 mi South 11.5 mph - N/A   Clear
11:53 AM 16.5 °F 4.3 °F 4.6 °F 60% 29.80 in 10.0 mi South 10.4 mph - N/A   Clear
12:14 PM 18.3 °F 5.2 °F 6.1 °F 59% 29.78 in 10.0 mi South 12.7 mph 16.1 mph N/A   Clear
12:23 PM 18.9 °F 5.9 °F 6.4 °F 58% 29.76 in 10.0 mi South 12.7 mph 17.3 mph N/A   Clear
1:25 PM 23.0 °F 10.6 °F 10.4 °F 59% 29.70 in 10.0 mi South 13.8 mph 20.7 mph N/A   Clear
1:35 PM 23.7 °F 11.5 °F 11.8 °F 61% 29.69 in 10.0 mi South 13.8 mph 19.6 mph N/A   Clear
1:53 PM 25.2 °F 13.9 °F 13.3 °F 61% 29.67 in 10.0 mi South 12.7 mph - N/A   Clear
2:13 PM 27.0 °F 17.3 °F 14.9 °F 60% 29.66 in 10.0 mi South 10.4 mph 19.6 mph N/A   Clear
2:33 PM 28.2 °F 17.2 °F 15.8 °F 60% 29.64 in 10.0 mi South 13.8 mph 19.6 mph N/A   Clear
2:53 PM 29.7 °F 18.6 °F 16.3 °F 58% 29.63 in 10.0 mi South 15.0 mph 18.4 mph N/A   Clear
3:13 PM 30.2 °F 19.8 °F 16.9 °F 58% 29.61 in 10.0 mi South 13.8 mph 19.6 mph N/A   Scattered Clouds
3:33 PM 30.2 °F 19.8 °F 17.6 °F 60% 29.60 in - South 13.8 mph 19.6 mph N/A   Scattered Clouds
3:54 PM 30.9 °F 20.2 °F 18.9 °F 61% 29.60 in 10.0 mi South 15.0 mph - N/A   Mostly Cloudy
4:14 PM 31.5 °F 20.9 °F 19.9 °F 62% 29.59 in 10.0 mi South 15.0 mph 19.6 mph N/A   Mostly Cloudy
4:33 PM 31.8 °F 22.8 °F 20.3 °F 62% 29.59 in 10.0 mi SSW 11.5 mph 19.6 mph N/A   Scattered Clouds
4:53 PM 31.8 °F 22.8 °F 20.3 °F 62% 29.59 in 10.0 mi SSW 11.5 mph 16.1 mph N/A   Mostly Cloudy
5:14 PM 30.6 °F 22.4 °F 20.5 °F 66% 29.59 in 10.0 mi SSW 9.2 mph - N/A   Mostly Cloudy
5:34 PM 30.9 °F 24.3 °F 20.7 °F 66% 29.59 in 10.0 mi SSW 6.9 mph - N/A   Scattered Clouds
5:53 PM 30.9 °F 22.8 °F 20.8 °F 66% 29.58 in 10.0 mi SW 9.2 mph - N/A   Scattered Clouds
6:13 PM 31.1 °F 23.7 °F 20.7 °F 65% 29.58 in 10.0 mi SW 8.1 mph - N/A   Clear
6:33 PM 29.8 °F 22.2 °F 20.8 °F 69% 29.58 in 10.0 mi SW 8.1 mph - N/A   Clear
6:53 PM 29.3 °F 24.3 °F 20.8 °F 71% 29.59 in 10.0 mi SW 4.6 mph - N/A   Clear
7:13 PM 29.5 °F 25.9 °F 20.5 °F 69% 29.59 in 10.0 mi SW 3.5 mph - N/A   Scattered Clouds
7:33 PM 28.8 °F 23.7 °F 20.3 °F 71% 29.58 in 10.0 mi SW 4.6 mph - N/A   Scattered Clouds
7:53 PM 27.9 °F 22.6 °F 19.8 °F 72% 29.58 in 10.0 mi SW 4.6 mph - N/A   Mostly Cloudy
8:13 PM 26.4 °F - 19.6 °F 75% 29.58 in 10.0 mi Calm Calm - N/A   Scattered Clouds
8:33 PM 23.9 °F - 18.5 °F 80% 29.58 in 10.0 mi Calm Calm - N/A   Clear
8:54 PM 22.1 °F 17.4 °F 17.4 °F 82% 29.57 in 10.0 mi South 3.5 mph - N/A   Clear
9:13 PM 21.7 °F - 17.1 °F 82% 29.57 in 10.0 mi Calm Calm - N/A   Clear
9:33 PM 19.8 °F 14.7 °F 15.4 °F 83% 29.57 in 10.0 mi South 3.5 mph - N/A   Clear
9:53 PM 21.6 °F - 16.9 °F 82% 29.56 in 10.0 mi Calm Calm - N/A   Mostly Cloudy
10:14 PM 20.8 °F - 16.5 °F 83% 29.56 in 10.0 mi Calm Calm - N/A   Overcast
10:32 PM 22.6 °F - 17.4 °F 80% 29.55 in 10.0 mi Calm Calm - N/A   Overcast
10:53 PM 21.9 °F - 17.4 °F 83% 29.54 in 10.0 mi Calm Calm - N/A   Overcast
11:13 PM 21.9 °F - 17.8 °F 84% 29.54 in 10.0 mi Calm Calm - N/A   Overcast
11:33 PM 22.1 °F - 18.5 °F 86% 29.54 in 10.0 mi Calm Calm - N/A   Overcast
11:53 PM 23.2 °F - 19.0 °F 84% 29.53 in 10.0 mi Calm Calm - N/A   Overcast